[[{"header":{"parameterUnit":"m.s-1","parameterCategory":1,"la1":30.2991,"la2":30.254,"lo1":-89.0895,"lo2":-89.0444,"dy":0.0017,"dx":0.0017,"nx":28,"ny":28,"refTime":"2024-12-26T03:00:00:Z","depth":0,"parameterNumber":2,"parameterNumberName":"U-component_of_WINDS"},"data":[0,0,0,0,0,0,0,0,0,0,0,0,0,0,0,0,0,0,0,0,0,0,0,0,0,0,0,0,0,0,0,0,0,0,0,0,0,0,0,0,0,0,0,0,0,0,0,0,0,0,0,0,0,0,0,0,0,0,-0.7461,-0.7463,0,-0.7658,-0.7661,-0.7663,-0.7759,-0.7759,-0.7759,-0.7759,-0.7966,-0.7971,-0.7977,0,0,0,0,0,0,0,0,0,0,0,0,0,-0.7172,-0.7177,-0.7461,-0.7463,-0.7466,-0.7658,-0.7661,-0.7663,-0.7759,-0.7759,-0.7759,-0.7759,-0.7964,-0.7971,-0.7977,0,0,0,0,0,0,0,0,0,0,0,0,0,-0.7326,-0.7178,-0.746,-0.7537,-0.7545,-0.7657,-0.7661,-0.7664,-0.7759,-0.7759,-0.7759,-0.7759,-0.7962,-0.797,-0.7978,-0.803,0,0,-0.8003,-0.8007,0,0,0,0,0,0,0,0,-0.7317,-0.7337,-0.7523,-0.7532,-0.7542,-0.7684,-0.7635,-0.7787,-0.7759,-0.7678,-0.7759,-0.7759,-0.7872,-0.7888,-0.7925,-0.804,-0.8049,-0.8004,-0.8009,-0.8013,-0.8015,0,0,0,0,0,0,0,-0.7306,-0.7329,-0.7539,-0.7526,-0.7537,-0.7563,-0.7584,-0.7664,-0.7773,-0.7685,-0.7693,-0.7715,-0.7878,-0.7917,-0.7931,-0.8052,-0.8004,-0.8011,-0.8016,-0.802,-0.8221,-0.8221,0,0,0,0,0,0,-0.7283,-0.7319,-0.7533,-0.7545,-0.7427,-0.7568,-0.7592,-0.7638,-0.7773,-0.7793,-0.7714,-0.7718,-0.7903,-0.7921,-0.7939,-0.801,-0.8013,-0.8021,-0.8025,-0.8221,-0.8221,-0.8222,0,0,0,0,0,0,-0.7276,-0.7301,-0.7525,-0.7434,-0.7465,-0.7573,-0.7624,-0.7642,-0.7682,-0.7795,-0.7815,-0.7734,-0.7904,-0.7927,-0.8007,-0.8018,-0.8024,-0.8032,-0.822,-0.8221,-0.8221,-0.8151,0,0,0,0,0,0,-0.7267,-0.7298,-0.7318,-0.7434,-0.7469,-0.7588,-0.7625,-0.7646,-0.7696,-0.7703,-0.7819,-0.7838,-0.7905,-0.7994,-0.8015,-0.803,-0.8038,-0.822,-0.822,-0.8221,-0.8153,-0.8149,-0.8146,0,0,0,0,0,-0.7257,-0.7291,-0.7318,-0.7344,-0.7496,-0.7589,-0.7609,-0.7684,-0.7696,-0.7718,-0.779,-0.7834,-0.8013,-0.8001,-0.8026,-0.8043,-0.8219,-0.822,-0.8221,-0.8154,-0.815,-0.8146,0,0,0,0,0,0,-0.7175,-0.7308,-0.7339,-0.7412,-0.7488,-0.7605,-0.7634,-0.7677,-0.7753,-0.7756,-0.7848,-0.7873,-0.7945,-0.8003,-0.7987,-0.8101,-0.8121,-0.8126,-0.8061,-0.8058,-0.8054,-0.804,-0.8045,0,0,0,0,0,-0.7165,-0.7228,-0.7341,-0.7394,-0.743,-0.7525,-0.7569,-0.762,-0.7703,-0.7736,-0.7815,-0.7895,-0.797,-0.8017,-0.8092,-0.8161,-0.8189,-0.8185,-0.8182,-0.8178,-0.8183,-0.8225,-0.8225,-0.8224,-0.8224,-0.8224,0,0,-0.7146,-0.7226,-0.726,-0.738,-0.7445,-0.7509,-0.7552,-0.7618,-0.7667,-0.7747,-0.7827,-0.7887,-0.7983,-0.8058,-0.8095,-0.8108,-0.8189,-0.8179,-0.8176,-0.8182,-0.8225,-0.8225,-0.8225,-0.8225,-0.8225,-0.8225,0,0,-0.7144,-0.721,-0.7262,-0.7326,-0.7423,-0.7486,-0.7498,-0.7609,-0.7652,-0.7733,-0.7794,-0.7855,-0.7981,-0.8047,-0.8097,-0.812,-0.8164,-0.8141,-0.8124,-0.8163,-0.8164,-0.8164,-0.8173,-0.8175,-0.8145,-0.8145,-0.8145,0,-0.7108,-0.7206,-0.7284,-0.7346,-0.7397,-0.7471,-0.7525,-0.7584,-0.7701,-0.7735,-0.7748,-0.7907,-0.7977,-0.8069,-0.8074,-0.8112,-0.813,-0.8129,-0.8157,-0.8158,-0.816,-0.817,-0.8173,-0.8142,-0.8142,-0.8142,-0.8143,0,-0.7158,-0.7225,-0.7255,-0.7365,-0.7419,-0.7477,-0.7565,-0.7611,-0.7658,-0.772,-0.7802,-0.7889,-0.7982,-0.8008,-0.8054,-0.8107,-0.8112,-0.8139,-0.816,-0.8155,-0.8166,-0.817,-0.8137,-0.8138,-0.8139,-0.814,0,0,-0.711,-0.7261,-0.7271,-0.7322,-0.7435,-0.7489,-0.7551,-0.7641,-0.7679,-0.7758,-0.7813,-0.7918,-0.7944,-0.8001,-0.8056,-0.809,-0.8104,-0.8114,-0.8118,-0.811,-0.8168,-0.8147,-0.815,-0.8133,-0.8134,-0.8135,-0.816,0,-0.7125,-0.7237,-0.7308,-0.7393,-0.7456,-0.7527,-0.7581,-0.7657,-0.7717,-0.7781,-0.7848,-0.792,-0.7949,-0.7984,-0.8021,-0.8094,-0.8117,-0.8093,-0.8187,-0.819,-0.8161,-0.8156,-0.8134,-0.8153,-0.8165,-0.8166,-0.8166,0,-0.7156,-0.7231,-0.7321,-0.7427,-0.7457,-0.7504,-0.7592,-0.7652,-0.774,-0.7781,-0.7844,-0.7899,-0.7969,-0.7984,-0.8082,-0.8064,-0.8107,-0.8149,-0.8151,-0.8164,-0.8178,-0.8169,-0.8161,-0.8164,-0.8173,-0.8173,-0.8172,0,-0.7113,-0.7237,-0.7307,-0.7348,-0.7474,-0.7505,-0.7559,-0.7647,-0.7697,-0.7775,-0.7808,-0.7893,-0.7941,-0.8006,-0.8084,-0.8087,-0.8175,-0.8196,-0.8212,-0.821,-0.8228,-0.8226,-0.8228,-0.8254,-0.8254,-0.8254,-0.8254,0,-0.7122,-0.7175,-0.7289,-0.7332,-0.7394,-0.7476,-0.7536,-0.7596,-0.7673,-0.7731,-0.7798,-0.785,-0.7949,-0.8014,-0.8076,-0.8148,-0.8169,-0.8206,-0.8221,-0.82,-0.8195,-0.823,-0.8231,-0.8255,-0.8255,-0.8254,-0.8254,0,-0.7085,-0.7163,-0.7245,-0.7356,-0.7385,-0.7426,-0.7522,-0.7568,-0.7631,-0.7703,-0.7724,-0.7824,-0.7904,-0.7988,-0.8097,-0.8139,-0.8209,-0.8231,-0.8179,-0.8188,-0.82,-0.8198,-0.8226,-0.8234,-0.8252,-0.8252,-0.8251,0,-0.7085,-0.7127,-0.7243,-0.7285,-0.7337,-0.7404,-0.7455,-0.7538,-0.7589,-0.7692,-0.7726,-0.781,-0.7883,-0.8009,-0.8092,-0.8176,-0.8201,-0.8205,-0.8214,-0.8192,-0.8202,-0.8199,-0.8204,-0.8201,-0.8201,-0.82,-0.82,0,-0.7079,-0.7115,-0.7185,-0.7268,-0.7326,-0.7396,-0.7469,-0.75,-0.7598,-0.7652,-0.7734,-0.779,-0.7901,-0.7985,-0.8079,-0.8137,-0.8186,-0.8196,-0.8205,-0.8184,-0.8152,-0.817,-0.8171,-0.8195,-0.8196,-0.8196,-0.8196,-0.8196,-0.7061,-0.7102,-0.7189,-0.7265,-0.7328,-0.7394,-0.7442,-0.7511,-0.758,-0.7676,-0.7721,-0.7804,-0.7893,-0.8024,-0.808,-0.8147,-0.8161,-0.8173,-0.8177,-0.8178,-0.8174,-0.814,-0.8165,-0.8165,-0.8165,-0.8166,-0.8166,0,-0.7059,-0.7118,-0.7186,-0.7285,-0.7345,-0.7383,-0.7466,-0.7514,-0.7585,-0.7662,-0.7732,-0.7827,-0.7909,-0.7998,-0.8086,-0.8122,-0.8147,-0.8143,-0.8142,-0.8154,-0.8156,-0.814,-0.8122,-0.8122,-0.8122,-0.8122,-0.8122,-0.8122,-0.7064,-0.7135,-0.7182,-0.7286,-0.7346,-0.7426,-0.747,-0.7532,-0.7594,-0.7696,-0.7764,-0.7821,-0.7904,-0.7999,-0.8076,-0.8101,-0.813,-0.812,-0.8151,-0.8151,-0.8154,-0.8157,-0.8143,-0.8126,-0.8126,-0.8144,-0.8144,-0.8144]},{"header":{"parameterUnit":"m.s-1","parameterCategory":1,"la1":30.2991,"la2":30.254,"lo1":-89.0895,"lo2":-89.0444,"dy":0.0017,"dx":0.0017,"nx":28,"ny":28,"refTime":"2024-12-26T03:00:00:Z","depth":0,"parameterNumber":3,"parameterNumberName":"V-component_of_WINDS"},"data":[0,0,0,0,0,0,0,0,0,0,0,0,0,0,0,0,0,0,0,0,0,0,0,0,0,0,0,0,0,0,0,0,0,0,0,0,0,0,0,0,0,0,0,0,0,0,0,0,0,0,0,0,0,0,0,0,0,0,3.5647,3.5649,0,3.5813,3.5815,3.5816,3.5887,3.5887,3.5887,3.5886,3.6053,3.6058,3.6063,0,0,0,0,0,0,0,0,0,0,0,0,0,3.5392,3.5396,3.5647,3.5649,3.5651,3.5812,3.5815,3.5817,3.5887,3.5887,3.5887,3.5886,3.6052,3.6057,3.6063,0,0,0,0,0,0,0,0,0,0,0,0,0,3.5524,3.5398,3.5647,3.5706,3.5713,3.5812,3.5815,3.5817,3.5887,3.5887,3.5887,3.5886,3.605,3.6057,3.6064,3.6116,0,0,3.6085,3.6088,0,0,0,0,0,0,0,0,3.5517,3.5534,3.5695,3.5702,3.571,3.5829,3.5786,3.5917,3.5888,3.5821,3.5886,3.5886,3.5979,3.5992,3.6024,3.6123,3.613,3.6086,3.609,3.6093,3.6095,0,0,0,0,0,0,0,3.5508,3.5527,3.5712,3.5697,3.5706,3.5724,3.5742,3.5811,3.59,3.5827,3.5832,3.5851,3.5983,3.6017,3.6028,3.6133,3.6086,3.6092,3.6096,3.6099,3.6286,3.6287,0,0,0,0,0,0,3.5489,3.5519,3.5707,3.5717,3.561,3.5729,3.575,3.5791,3.59,3.5916,3.5851,3.5854,3.6005,3.602,3.6034,3.6104,3.6093,3.61,3.6104,3.6285,3.6286,3.6287,0,0,0,0,0,0,3.5483,3.5505,3.5701,3.562,3.5646,3.5734,3.578,3.5795,3.5829,3.5918,3.5934,3.587,3.6005,3.6024,3.6096,3.6111,3.6103,3.6109,3.6285,3.6286,3.6287,3.6243,0,0,0,0,0,0,3.5475,3.5502,3.5523,3.562,3.565,3.5759,3.5781,3.5798,3.5841,3.5846,3.594,3.5955,3.6006,3.6085,3.6103,3.612,3.6115,3.6284,3.6285,3.6286,3.6243,3.6242,3.6241,0,0,0,0,0,3.5466,3.5503,3.5524,3.5546,3.5678,3.576,3.5777,3.5837,3.5842,3.5863,3.5921,3.5952,3.6106,3.6091,3.6112,3.6132,3.6283,3.6285,3.6286,3.6244,3.6242,3.6241,0,0,0,0,0,0,3.5404,3.5516,3.5541,3.561,3.5675,3.5772,3.5801,3.5833,3.5897,3.5899,3.5969,3.599,3.6056,3.6101,3.6083,3.6189,3.6197,3.6203,3.6157,3.6157,3.6156,3.6144,3.6121,0,0,0,0,0,3.5399,3.5456,3.5551,3.5603,3.5635,3.5712,3.575,3.579,3.586,3.5888,3.5951,3.6017,3.6081,3.6121,3.6185,3.625,3.6272,3.6274,3.6273,3.6272,3.6276,3.6316,3.6319,3.6293,3.6293,3.6293,0,0,3.5388,3.5456,3.5488,3.5593,3.5648,3.5707,3.5735,3.5795,3.5839,3.5897,3.5969,3.6017,3.6096,3.6165,3.6199,3.6205,3.6288,3.6274,3.6272,3.6278,3.6318,3.6321,3.6323,3.6294,3.6294,3.6293,0,0,3.5398,3.5455,3.5506,3.5561,3.5645,3.5697,3.5709,3.5801,3.5836,3.591,3.5955,3.6009,3.6116,3.6171,3.6213,3.6247,3.6278,3.6265,3.626,3.6299,3.6301,3.6303,3.6317,3.6321,3.6269,3.6269,3.6269,0,3.5374,3.5464,3.5528,3.5587,3.5632,3.5688,3.5741,3.5791,3.589,3.592,3.5926,3.6065,3.6121,3.6205,3.6213,3.6245,3.6262,3.6255,3.6295,3.6298,3.6301,3.6315,3.632,3.6267,3.6267,3.6268,3.6268,0,3.5431,3.5493,3.5524,3.5621,3.567,3.5725,3.5797,3.5839,3.5875,3.5926,3.6001,3.6071,3.6151,3.6174,3.6209,3.6263,3.6265,3.6282,3.6291,3.6301,3.6315,3.6321,3.6264,3.6265,3.6266,3.6266,0,0,3.5406,3.5539,3.555,3.5596,3.5693,3.5743,3.5801,3.588,3.5915,3.5982,3.6034,3.6124,3.6142,3.6189,3.6231,3.6265,3.6289,3.6278,3.6281,3.6279,3.6356,3.6344,3.6349,3.631,3.6311,3.6312,3.635,0,3.5431,3.5539,3.5599,3.5682,3.5741,3.5796,3.5847,3.5913,3.5962,3.602,3.6074,3.6138,3.6155,3.6185,3.622,3.6279,3.6306,3.6277,3.6359,3.6361,3.6339,3.6356,3.6343,3.6375,3.6356,3.6357,3.6358,0,3.5475,3.5543,3.5632,3.5726,3.5753,3.5798,3.5877,3.593,3.6006,3.604,3.6094,3.6137,3.6201,3.6204,3.6294,3.6273,3.631,3.6344,3.6347,3.6358,3.6361,3.6369,3.6386,3.6391,3.6367,3.6366,3.6365,0,3.545,3.5564,3.5633,3.567,3.578,3.5811,3.5858,3.5933,3.5978,3.6047,3.6077,3.6151,3.6192,3.6248,3.631,3.6307,3.6394,3.6403,3.6425,3.6423,3.6441,3.644,3.6466,3.6463,3.6462,3.6462,3.6462,0,3.5473,3.5525,3.5624,3.5666,3.5728,3.5796,3.5855,3.5906,3.5973,3.6027,3.6078,3.6127,3.6205,3.6264,3.6312,3.638,3.6398,3.6427,3.644,3.6424,3.642,3.645,3.645,3.6464,3.6463,3.6463,3.6463,0,3.5455,3.5523,3.5603,3.5701,3.5727,3.5768,3.5853,3.5896,3.5949,3.6016,3.6036,3.6118,3.6191,3.6258,3.6353,3.6385,3.6455,3.647,3.643,3.6437,3.6456,3.6454,3.6504,3.6515,3.6501,3.6502,3.6502,0,3.5466,3.5508,3.5612,3.5652,3.5699,3.5763,3.5809,3.5878,3.5925,3.6016,3.6049,3.6125,3.619,3.6303,3.6371,3.6445,3.6463,3.6476,3.6474,3.6458,3.6465,3.6463,3.6468,3.6475,3.6474,3.6474,3.6474,0,3.5477,3.551,3.5575,3.5654,3.5708,3.5773,3.5839,3.5869,3.595,3.6,3.6076,3.6126,3.6225,3.6301,3.6383,3.6431,3.6467,3.6474,3.6484,3.6468,3.6444,3.6459,3.6429,3.6473,3.6473,3.6473,3.6473,3.6473,3.5476,3.5517,3.5597,3.567,3.5727,3.5788,3.5835,3.5895,3.5959,3.6046,3.6083,3.616,3.6236,3.6351,3.6399,3.646,3.6467,3.648,3.6484,3.6486,3.6484,3.6433,3.6475,3.6475,3.6475,3.6475,3.6475,0,3.5492,3.5547,3.5613,3.5705,3.5762,3.5792,3.5867,3.5913,3.598,3.6049,3.6113,3.62,3.6275,3.6349,3.6428,3.6462,3.6481,3.6481,3.6479,3.6491,3.6472,3.6457,3.6465,3.6465,3.6465,3.6465,3.6465,3.6465,3.5507,3.5579,3.5621,3.5723,3.5778,3.5855,3.5896,3.5953,3.6009,3.6105,3.6167,3.6216,3.6288,3.6372,3.6442,3.6462,3.6489,3.6485,3.6509,3.6491,3.6491,3.6492,3.6478,3.649,3.649,3.6523,3.6524,3.6524]}]]